Time,TemperatureF,DewpointF,PressureIn,WindDirection,WindDirectionDegrees,WindSpeedMPH,WindSpeedGustMPH,Humidity,HourlyPrecipIn,Conditions,Clouds,dailyrainin,SoftwareType,DateUTC
2013-04-07 00:02:00,35.0,34.0,-100.00,NW,325,11.0,16.0,92,0.00,,,0.00,,2013-04-07 05:02:00,
2013-04-07 00:12:00,35.0,34.0,-100.00,NW,320,11.0,16.0,92,0.00,,,0.00,,2013-04-07 05:12:00,
2013-04-07 00:22:00,35.0,32.0,-100.00,NW,315,12.0,17.0,92,0.00,,,0.00,,2013-04-07 05:22:00,
2013-04-07 00:33:00,34.0,32.0,-100.00,NW,325,9.0,15.0,92,0.00,,,0.00,,2013-04-07 05:33:00,
2013-04-07 00:42:00,34.0,32.0,-100.00,NW,320,11.0,16.0,92,0.00,,,0.00,,2013-04-07 05:42:00,
2013-04-07 00:52:00,34.0,32.0,-100.00,NNW,335,8.0,14.0,92,0.00,,,0.00,,2013-04-07 05:52:00,
2013-04-07 01:02:00,34.0,32.0,-100.00,NW,325,11.0,15.0,92,0.00,,,0.00,,2013-04-07 06:02:00,
2013-04-07 01:12:00,34.0,32.0,-100.00,NNW,330,10.0,15.0,92,0.00,,,0.00,,2013-04-07 06:12:00,
2013-04-07 01:22:00,34.0,32.0,-100.00,NNW,330,9.0,16.0,93,0.00,,,0.00,,2013-04-07 06:22:00,
2013-04-07 01:32:00,34.0,32.0,-100.00,NNW,330,9.0,17.0,93,0.00,,,0.00,,2013-04-07 06:32:00,
2013-04-07 01:42:00,34.0,32.0,-100.00,NNW,330,11.0,17.0,92,0.00,,,0.00,,2013-04-07 06:42:00,
2013-04-07 01:52:00,34.0,32.0,-100.00,NNW,335,12.0,18.0,92,0.00,,,0.00,,2013-04-07 06:52:00,
2013-04-07 02:02:00,34.0,32.0,-100.00,NNW,345,12.0,19.0,92,0.00,,,0.00,,2013-04-07 07:02:00,
2013-04-07 02:12:00,34.0,32.0,-100.00,North,350,10.0,15.0,92,0.00,,,0.00,,2013-04-07 07:12:00,
2013-04-07 02:22:00,34.0,32.0,-100.00,NNW,335,11.0,17.0,92,0.00,,,0.00,,2013-04-07 07:22:00,
2013-04-07 02:32:00,34.0,32.0,-100.00,NNW,340,9.0,17.0,92,0.00,,,0.00,,2013-04-07 07:32:00,
2013-04-07 02:42:00,34.0,32.0,-100.00,NNW,345,10.0,15.0,92,0.00,,,0.00,,2013-04-07 07:42:00,
2013-04-07 02:52:00,33.0,32.0,-100.00,NW,325,7.0,13.0,92,0.00,,,0.00,,2013-04-07 07:52:00,
2013-04-07 03:02:00,33.0,30.0,-100.00,NW,320,7.0,11.0,92,0.00,,,0.00,,2013-04-07 08:02:00,
2013-04-07 03:12:00,33.0,30.0,-100.00,NW,325,8.0,11.0,93,0.00,,,0.00,,2013-04-07 08:12:00,
2013-04-07 03:22:00,33.0,30.0,-100.00,NNW,340,9.0,14.0,93,0.00,,,0.00,,2013-04-07 08:22:00,
2013-04-07 03:32:00,33.0,30.0,-100.00,NNW,335,8.0,11.0,92,0.00,,,0.00,,2013-04-07 08:32:00,
2013-04-07 03:42:00,33.0,30.0,-100.00,NNW,330,9.0,11.0,93,0.00,,,0.00,,2013-04-07 08:42:00,
2013-04-07 03:52:00,33.0,30.0,-100.00,NNW,330,7.0,11.0,92,0.00,,,0.00,,2013-04-07 08:52:00,
2013-04-07 04:02:00,32.0,30.0,-100.00,NNW,340,6.0,9.0,93,0.00,,,0.00,,2013-04-07 09:02:00,
2013-04-07 04:12:00,32.0,30.0,-100.00,NW,315,6.0,9.0,93,0.00,,,0.00,,2013-04-07 09:12:00,
2013-04-07 04:22:00,32.0,30.0,-100.00,NW,325,6.0,8.0,93,0.00,,,0.00,,2013-04-07 09:22:00,
2013-04-07 04:33:00,32.0,30.0,-100.00,NW,325,7.0,9.0,94,0.00,,,0.00,,2013-04-07 09:33:00,
2013-04-07 04:43:00,32.0,30.0,-100.00,NNW,340,7.0,10.0,94,0.00,,,0.00,,2013-04-07 09:43:00,
2013-04-07 04:53:00,32.0,30.0,-100.00,NNW,335,7.0,10.0,94,0.00,,,0.00,,2013-04-07 09:53:00,
2013-04-07 05:03:00,33.0,30.0,-100.00,NNW,335,7.0,9.0,94,0.00,,,0.00,,2013-04-07 10:03:00,
2013-04-07 05:13:00,33.0,32.0,-100.00,NNW,330,6.0,9.0,93,0.00,,,0.00,,2013-04-07 10:13:00,
2013-04-07 05:22:00,33.0,30.0,-100.00,NNW,330,7.0,10.0,93,0.00,,,0.00,,2013-04-07 10:22:00,
2013-04-07 05:33:00,33.0,30.0,-100.00,NNW,330,10.0,14.0,92,0.00,,,0.00,,2013-04-07 10:33:00,
2013-04-07 05:42:00,33.0,30.0,-100.00,NNW,330,7.0,12.0,91,0.00,,,0.00,,2013-04-07 10:42:00,
2013-04-07 05:52:00,33.0,30.0,-100.00,NW,315,4.0,8.0,91,0.00,,,0.00,,2013-04-07 10:52:00,
2013-04-07 06:03:00,33.0,30.0,-100.00,North,350,6.0,11.0,91,0.00,,,0.00,,2013-04-07 11:03:00,
2013-04-07 06:12:00,33.0,30.0,-100.00,NW,325,4.0,8.0,91,0.00,,,0.00,,2013-04-07 11:12:00,
2013-04-07 06:22:00,33.0,30.0,-100.00,North,350,9.0,12.0,90,0.00,,,0.00,,2013-04-07 11:22:00,
2013-04-07 06:32:00,33.0,30.0,-100.00,NNW,340,4.0,9.0,90,0.00,,,0.00,,2013-04-07 11:32:00,
2013-04-07 06:42:00,33.0,30.0,-100.00,North,0,9.0,12.0,89,0.00,,,0.00,,2013-04-07 11:42:00,
2013-04-07 06:52:00,33.0,30.0,-100.00,North,5,6.0,12.0,88,0.00,,,0.00,,2013-04-07 11:52:00,
2013-04-07 07:02:00,33.0,30.0,-100.00,North,5,7.0,10.0,88,0.00,,,0.00,,2013-04-07 12:02:00,
2013-04-07 07:12:00,33.0,30.0,-100.00,NNE,20,6.0,10.0,88,0.00,,,0.00,,2013-04-07 12:12:00,
2013-04-07 07:22:00,33.0,30.0,-100.00,North,0,4.0,7.0,87,0.00,,,0.00,,2013-04-07 12:22:00,
2013-04-07 07:33:00,33.0,30.0,-100.00,NNW,345,4.0,6.0,87,0.00,,,0.00,,2013-04-07 12:33:00,
2013-04-07 07:42:00,33.0,30.0,-100.00,North,0,4.0,6.0,87,0.00,,,0.00,,2013-04-07 12:42:00,
2013-04-07 07:53:00,33.0,30.0,-100.00,North,10,4.0,4.0,87,0.00,,,0.00,,2013-04-07 12:53:00,
2013-04-07 08:03:00,33.0,30.0,-100.00,North,5,6.0,7.0,87,0.00,,,0.00,,2013-04-07 13:03:00,
2013-04-07 08:13:00,34.0,30.0,-100.00,North,0,4.0,8.0,87,0.00,,,0.00,,2013-04-07 13:13:00,
2013-04-07 08:22:00,34.0,30.0,-100.00,North,10,6.0,7.0,86,0.00,,,0.00,,2013-04-07 13:22:00,
2013-04-07 08:32:00,34.0,30.0,-100.00,North,5,6.0,7.0,86,0.00,,,0.00,,2013-04-07 13:32:00,
2013-04-07 08:42:00,34.0,30.0,-100.00,North,0,6.0,7.0,85,0.00,,,0.00,,2013-04-07 13:42:00,
2013-04-07 08:52:00,34.0,30.0,-100.00,NNW,345,4.0,5.0,85,0.00,,,0.00,,2013-04-07 13:52:00,
2013-04-07 09:02:00,34.0,30.0,-100.00,NNE,15,4.0,6.0,84,0.00,,,0.00,,2013-04-07 14:02:00,
2013-04-07 09:12:00,34.0,30.0,-100.00,NNE,15,5.0,6.0,84,0.00,,,0.00,,2013-04-07 14:12:00,
2013-04-07 09:23:00,34.0,30.0,-100.00,NNE,20,2.0,6.0,83,0.00,,,0.00,,2013-04-07 14:23:00,
2013-04-07 09:32:00,35.0,30.0,-100.00,NE,55,4.0,4.0,83,0.00,,,0.00,,2013-04-07 14:32:00,
2013-04-07 09:43:00,35.0,30.0,-100.00,NNE,30,2.0,4.0,83,0.00,,,0.00,,2013-04-07 14:43:00,
2013-04-07 09:53:00,35.0,30.0,-100.00,NE,45,4.0,4.0,82,0.00,,,0.00,,2013-04-07 14:53:00,
2013-04-07 10:02:00,35.0,30.0,-100.00,East,95,4.0,6.0,82,0.00,,,0.00,,2013-04-07 15:02:00,
2013-04-07 10:12:00,35.0,30.0,-100.00,ENE,60,1.0,4.0,82,0.00,,,0.00,,2013-04-07 15:12:00,
2013-04-07 10:22:00,35.0,30.0,-100.00,SE,130,2.0,4.0,81,0.00,,,0.00,,2013-04-07 15:22:00,
2013-04-07 10:33:00,36.0,30.0,-100.00,South,170,2.0,4.0,81,0.00,,,0.00,,2013-04-07 15:33:00,
2013-04-07 10:43:00,35.0,30.0,-100.00,SSW,195,2.0,4.0,80,0.00,,,0.00,,2013-04-07 15:43:00,
2013-04-07 10:53:00,36.0,30.0,-100.00,SSE,155,4.0,7.0,80,0.00,,,0.00,,2013-04-07 15:53:00,
2013-04-07 11:03:00,36.0,30.0,-100.00,SE,125,2.0,6.0,80,0.00,,,0.00,,2013-04-07 16:03:00,
2013-04-07 11:13:00,36.0,30.0,-100.00,ESE,120,4.0,6.0,79,0.00,,,0.00,,2013-04-07 16:13:00,
2013-04-07 11:24:00,36.0,30.0,-100.00,SW,215,2.0,3.0,79,0.00,,,0.00,,2013-04-07 16:24:00,
2013-04-07 11:33:00,36.0,30.0,-100.00,South,175,4.0,6.0,78,0.00,,,0.00,,2013-04-07 16:33:00,
2013-04-07 11:42:00,36.0,30.0,-100.00,South,170,4.0,6.0,78,0.00,,,0.00,,2013-04-07 16:42:00,
2013-04-07 11:53:00,36.0,30.0,-100.00,SSW,205,1.0,6.0,79,0.00,,,0.00,,2013-04-07 16:53:00,
2013-04-07 12:04:00,37.0,32.0,-100.00,South,190,4.0,6.0,78,0.00,,,0.00,,2013-04-07 17:04:00,
2013-04-07 12:13:00,37.0,30.0,-100.00,South,175,4.0,7.0,77,0.00,,,0.00,,2013-04-07 17:13:00,
2013-04-07 12:23:00,37.0,30.0,-100.00,South,175,2.0,9.0,77,0.00,,,0.00,,2013-04-07 17:23:00,
2013-04-07 12:33:00,37.0,30.0,-100.00,East,95,4.0,7.0,77,0.00,,,0.00,,2013-04-07 17:33:00,
2013-04-07 12:42:00,38.0,30.0,-100.00,SSE,160,4.0,6.0,76,0.00,,,0.00,,2013-04-07 17:42:00,
2013-04-07 12:52:00,38.0,32.0,-100.00,SE,125,5.0,7.0,76,0.00,,,0.00,,2013-04-07 17:52:00,
2013-04-07 13:02:00,38.0,32.0,-100.00,SE,125,4.0,8.0,75,0.00,,,0.00,,2013-04-07 18:02:00,
2013-04-07 13:13:00,38.0,30.0,-100.00,ESE,120,6.0,9.0,75,0.00,,,0.00,,2013-04-07 18:13:00,
2013-04-07 13:32:00,38.0,30.0,-100.00,East,85,4.0,7.0,75,0.00,,,0.00,,2013-04-07 18:32:00,
2013-04-07 13:42:00,38.0,30.0,-100.00,SSE,150,7.0,10.0,75,0.00,,,0.00,,2013-04-07 18:42:00,
2013-04-07 13:52:00,37.0,30.0,-100.00,South,185,7.0,9.0,77,0.00,,,0.00,,2013-04-07 18:52:00,
2013-04-07 14:02:00,38.0,32.0,-100.00,South,175,8.0,9.0,77,0.00,,,0.00,,2013-04-07 19:02:00,
2013-04-07 14:12:00,37.0,32.0,-100.00,SSE,165,5.0,9.0,78,0.00,,,0.00,,2013-04-07 19:12:00,
2013-04-07 14:22:00,37.0,32.0,-100.00,South,175,6.0,9.0,79,0.00,,,0.00,,2013-04-07 19:22:00,
2013-04-07 14:32:00,38.0,32.0,-100.00,SSE,155,6.0,7.0,79,0.00,,,0.00,,2013-04-07 19:32:00,
2013-04-07 14:42:00,38.0,32.0,-100.00,South,180,7.0,10.0,79,0.00,,,0.00,,2013-04-07 19:42:00,
2013-04-07 14:52:00,38.0,32.0,-100.00,South,180,9.0,11.0,79,0.00,,,0.00,,2013-04-07 19:52:00,
2013-04-07 15:02:00,39.0,34.0,-100.00,SSE,155,4.0,9.0,78,0.00,,,0.00,,2013-04-07 20:02:00,
2013-04-07 15:13:00,39.0,32.0,-100.00,SE,145,7.0,10.0,77,0.00,,,0.00,,2013-04-07 20:13:00,
2013-04-07 15:22:00,41.0,34.0,-100.00,SE,130,6.0,9.0,74,0.00,,,0.00,,2013-04-07 20:22:00,
2013-04-07 15:32:00,40.0,32.0,-100.00,ESE,115,8.0,12.0,73,0.00,,,0.00,,2013-04-07 20:32:00,
2013-04-07 15:43:00,41.0,34.0,-100.00,SSE,155,11.0,13.0,73,0.00,,,0.00,,2013-04-07 20:43:00,
2013-04-07 15:52:00,41.0,34.0,-100.00,SE,140,10.0,14.0,73,0.00,,,0.00,,2013-04-07 20:52:00,
2013-04-07 16:03:00,42.0,34.0,-100.00,ESE,115,7.0,12.0,73,0.00,,,0.00,,2013-04-07 21:03:00,
2013-04-07 16:13:00,42.0,34.0,-100.00,SE,140,10.0,13.0,72,0.00,,,0.00,,2013-04-07 21:13:00,
2013-04-07 16:22:00,41.0,34.0,-100.00,SSE,165,11.0,16.0,73,0.00,,,0.00,,2013-04-07 21:22:00,
2013-04-07 16:33:00,42.0,34.0,-100.00,SE,125,10.0,16.0,73,0.00,,,0.00,,2013-04-07 21:33:00,
2013-04-07 16:43:00,42.0,34.0,-100.00,SE,125,9.0,12.0,72,0.00,,,0.00,,2013-04-07 21:43:00,
2013-04-07 16:53:00,42.0,34.0,-100.00,SE,140,7.0,14.0,72,0.00,,,0.00,,2013-04-07 21:53:00,
2013-04-07 17:03:00,42.0,34.0,-100.00,SSE,150,7.0,12.0,73,0.00,,,0.00,,2013-04-07 22:03:00,
2013-04-07 17:13:00,42.0,34.0,-100.00,SE,130,7.0,11.0,73,0.00,,,0.00,,2013-04-07 22:13:00,
2013-04-07 17:23:00,41.0,34.0,-100.00,SSE,165,11.0,13.0,75,0.00,,,0.00,,2013-04-07 22:23:00,
2013-04-07 17:33:00,41.0,34.0,-100.00,South,170,11.0,13.0,77,0.00,,,0.00,,2013-04-07 22:33:00,
2013-04-07 17:43:00,41.0,36.0,-100.00,SSE,155,7.0,12.0,77,0.00,,,0.00,,2013-04-07 22:43:00,
2013-04-07 17:52:00,42.0,36.0,-100.00,SE,145,8.0,10.0,77,0.00,,,0.00,,2013-04-07 22:52:00,
2013-04-07 18:03:00,42.0,36.0,-100.00,SSE,150,7.0,9.0,77,0.00,,,0.00,,2013-04-07 23:03:00,
2013-04-07 18:12:00,42.0,36.0,-100.00,SSE,160,6.0,11.0,77,0.00,,,0.00,,2013-04-07 23:12:00,
2013-04-07 18:22:00,42.0,36.0,-100.00,SSE,155,8.0,11.0,77,0.00,,,0.00,,2013-04-07 23:22:00,
2013-04-07 18:32:00,42.0,36.0,-100.00,SE,140,7.0,13.0,77,0.00,,,0.00,,2013-04-07 23:32:00,
2013-04-07 18:42:00,42.0,36.0,-100.00,SSE,155,6.0,11.0,78,0.00,,,0.00,,2013-04-07 23:42:00,
2013-04-07 18:52:00,42.0,36.0,-100.00,SSE,150,6.0,9.0,78,0.00,,,0.00,,2013-04-07 23:52:00,
2013-04-07 19:02:00,42.0,36.0,-100.00,SSE,150,6.0,9.0,79,0.00,,,0.00,,2013-04-08 00:02:00,
2013-04-07 19:12:00,42.0,36.0,-100.00,SSE,165,7.0,9.0,79,0.00,,,0.00,,2013-04-08 00:12:00,
2013-04-07 19:22:00,41.0,36.0,-100.00,South,170,10.0,14.0,82,0.00,,,0.00,,2013-04-08 00:22:00,
2013-04-07 19:32:00,40.0,36.0,-100.00,South,175,7.0,11.0,84,0.00,,,0.00,,2013-04-08 00:32:00,
2013-04-07 19:42:00,40.0,37.0,-100.00,SSE,160,7.0,10.0,86,0.00,,,0.00,,2013-04-08 00:42:00,
2013-04-07 19:52:00,40.0,37.0,-100.00,South,170,7.0,9.0,87,0.00,,,0.00,,2013-04-08 00:52:00,
2013-04-07 20:02:00,40.0,37.0,-100.00,SSE,165,5.0,8.0,88,0.00,,,0.00,,2013-04-08 01:02:00,
2013-04-07 20:12:00,40.0,37.0,-100.00,SE,145,4.0,6.0,89,0.00,,,0.00,,2013-04-08 01:12:00,
2013-04-07 20:22:00,40.0,37.0,-100.00,ESE,120,3.0,6.0,89,0.00,,,0.00,,2013-04-08 01:22:00,
2013-04-07 20:33:00,40.0,37.0,-100.00,ESE,120,4.0,6.0,90,0.00,,,0.00,,2013-04-08 01:33:00,
2013-04-07 20:43:00,40.0,37.0,-100.00,East,100,4.0,4.0,90,0.00,,,0.00,,2013-04-08 01:43:00,
2013-04-07 20:53:00,40.0,37.0,-100.00,East,90,4.0,6.0,91,0.00,,,0.00,,2013-04-08 01:53:00,
2013-04-07 21:02:00,40.0,37.0,-100.00,East,80,4.0,6.0,92,0.00,,,0.00,,2013-04-08 02:02:00,
2013-04-07 21:12:00,40.0,37.0,-100.00,ENE,70,6.0,7.0,92,0.00,,,0.00,,2013-04-08 02:12:00,
2013-04-07 21:22:00,40.0,37.0,-100.00,ENE,75,4.0,7.0,93,0.00,,,0.00,,2013-04-08 02:22:00,
2013-04-07 21:33:00,39.0,37.0,-100.00,East,95,3.0,6.0,94,0.00,,,0.00,,2013-04-08 02:33:00,
2013-04-07 21:45:00,39.0,37.0,-100.00,East,90,4.0,6.0,95,0.00,,,0.00,,2013-04-08 02:45:00,
2013-04-07 21:52:00,39.0,37.0,-100.00,East,100,4.0,7.0,96,0.00,,,0.00,,2013-04-08 02:52:00,
2013-04-07 22:14:00,39.0,39.0,-100.00,East,95,6.0,8.0,97,0.00,,,0.00,,2013-04-08 03:14:00,
2013-04-07 22:23:00,39.0,39.0,-100.00,East,90,6.0,8.0,98,0.00,,,0.00,,2013-04-08 03:23:00,
2013-04-07 22:33:00,39.0,39.0,-100.00,ENE,75,6.0,8.0,98,0.00,,,0.00,,2013-04-08 03:33:00,